| time (UTC) | temp F | wind direction | speed knots | gust knots | rain 1hr in | rain 24hr in | rain mn in | humidity % | barometer mb |
| 20260506175005 | 54 | 0 | 0.0 | 0.0 | 0.00 | 0.37 | 0.37 | 49 | 1017.2 |
| 20260506174505 | 55 | 0 | 0.0 | 0.0 | 0.00 | 0.37 | 0.37 | 48 | 1017.2 |
| 20260506174005 | 55 | 0 | 0.0 | 0.0 | 0.00 | 0.37 | 0.37 | 47 | 1017.2 |
| 20260506173505 | 56 | 0 | 0.0 | 0.0 | 0.00 | 0.37 | 0.37 | 47 | 1017.2 |
| 20260506173005 | 56 | 0 | 0.0 | 0.0 | 0.00 | 0.37 | 0.37 | 46 | 1017.2 |
| 20260506172505 | 56 | 0 | 0.0 | 0.0 | 0.00 | 0.37 | 0.37 | 45 | 1017.2 |
| 20260506172005 | 56 | 0 | 0.0 | 0.0 | 0.00 | 0.37 | 0.37 | 44 | 1017.2 |
| 20260506171505 | 56 | 0 | 0.0 | 0.0 | 0.00 | 0.37 | 0.37 | 44 | 1017.2 |
| 20260506171005 | 56 | 0 | 0.0 | 0.0 | 0.00 | 0.37 | 0.37 | 45 | 1017.2 |
| 20260506170505 | 57 | 0 | 0.0 | 0.0 | 0.00 | 0.37 | 0.37 | 45 | 1017.2 |
| 20260506170005 | 57 | 0 | 0.0 | 0.0 | 0.00 | 0.37 | 0.37 | 44 | 1017.2 |
| 20260506165505 | 57 | 0 | 0.0 | 0.0 | 0.00 | 0.37 | 0.37 | 44 | 1017.2 |
| 20260506165005 | 57 | 0 | 0.0 | 0.0 | 0.00 | 0.37 | 0.37 | 43 | 1017.2 |
| 20260506164505 | 57 | 0 | 0.0 | 0.0 | 0.00 | 0.37 | 0.37 | 44 | 1017.2 |
| 20260506164005 | 57 | 0 | 0.0 | 0.0 | 0.00 | 0.37 | 0.37 | 44 | 1017.2 |
| 20260506163505 | 57 | 0 | 0.0 | 0.0 | 0.00 | 0.37 | 0.37 | 44 | 1017.2 |
| 20260506163005 | 57 | 0 | 0.0 | 0.0 | 0.00 | 0.37 | 0.37 | 43 | 1017.2 |
| 20260506162505 | 57 | 0 | 0.0 | 0.0 | 0.00 | 0.37 | 0.37 | 44 | 1017.2 |
| 20260506162005 | 57 | 0 | 0.0 | 0.0 | 0.00 | 0.37 | 0.37 | 43 | 1017.2 |
| 20260506161505 | 57 | 0 | 0.0 | 0.0 | 0.00 | 0.37 | 0.37 | 44 | 1017.2 |
| 20260506160005 | 57 | 0 | 0.0 | 0.0 | 0.00 | 0.37 | 0.37 | 44 | 1017.2 |
| 20260506155005 | 57 | 0 | 0.0 | 0.0 | 0.00 | 0.37 | 0.37 | 44 | 1017.2 |
| 20260506154505 | 58 | 0 | 0.0 | 0.0 | 0.00 | 0.37 | 0.37 | 46 | 1017.2 |
| 20260506154005 | 58 | 0 | 0.0 | 0.0 | 0.00 | 0.37 | 0.37 | 46 | 1018.3 |
| 20260506153505 | 58 | 0 | 0.0 | 0.0 | 0.00 | 0.37 | 0.37 | 47 | 1018.3 |
| 20260506153005 | 57 | 0 | 0.0 | 0.0 | 0.00 | 0.37 | 0.37 | 48 | 1018.3 |
| 20260506152505 | 56 | 0 | 0.0 | 0.0 | 0.00 | 0.37 | 0.37 | 47 | 1018.3 |
| 20260506152005 | 56 | 0 | 0.0 | 0.0 | 0.00 | 0.37 | 0.37 | 48 | 1018.3 |
| 20260506151505 | 56 | 0 | 0.0 | 0.0 | 0.00 | 0.37 | 0.37 | 48 | 1018.3 |
| 20260506151005 | 56 | 0 | 0.0 | 0.0 | 0.00 | 0.37 | 0.37 | 47 | 1017.2 |
| 20260506150505 | 55 | 0 | 0.0 | 0.0 | 0.00 | 0.37 | 0.37 | 47 | 1017.2 |
| 20260506150005 | 56 | 0 | 0.0 | 0.0 | 0.00 | 0.37 | 0.37 | 48 | 1017.2 |
| 20260506145505 | 56 | 0 | 0.0 | 0.0 | 0.00 | 0.37 | 0.37 | 49 | 1018.3 |
| 20260506145005 | 55 | 0 | 0.0 | 0.0 | 0.00 | 0.37 | 0.37 | 49 | 1018.3 |
| 20260506144505 | 55 | 0 | 0.0 | 0.0 | 0.00 | 0.37 | 0.37 | 49 | 1018.3 |
| 20260506144005 | 55 | 0 | 0.0 | 0.0 | 0.00 | 0.37 | 0.37 | 48 | 1018.3 |
| 20260506143505 | 55 | 0 | 0.0 | 0.0 | 0.00 | 0.37 | 0.37 | 48 | 1018.3 |
| 20260506143005 | 55 | 0 | 0.0 | 0.0 | 0.00 | 0.37 | 0.37 | 47 | 1018.3 |
| 20260506142505 | 55 | 0 | 0.0 | 0.0 | 0.00 | 0.37 | 0.37 | 45 | 1018.3 |
| 20260506142005 | 56 | 0 | 0.0 | 0.0 | 0.00 | 0.37 | 0.37 | 41 | 1018.3 |
| 20260506141505 | 57 | 0 | 0.0 | 0.0 | 0.00 | 0.37 | 0.37 | 41 | 1018.3 |
| 20260506141005 | 58 | 0 | 0.0 | 0.0 | 0.00 | 0.37 | 0.37 | 39 | 1016.1 |
| 20260506140505 | 59 | 0 | 0.0 | 0.0 | 0.00 | 0.37 | 0.37 | 38 | 1016.1 |
| 20260506140005 | 61 | 0 | 0.0 | 0.0 | 0.00 | 0.37 | 0.37 | 36 | 1016.1 |
| 20260506135504 | 63 | 0 | 0.0 | 0.0 | 0.00 | 0.37 | 0.37 | 38 | 1016.1 |
| 20260506135005 | 63 | 0 | 0.0 | 0.0 | 0.00 | 0.37 | 0.37 | 37 | 1016.1 |
| 20260506134504 | 63 | 0 | 0.0 | 0.0 | 0.00 | 0.37 | 0.37 | 36 | 1016.1 |
| 20260506134005 | 65 | 0 | 0.0 | 0.0 | 0.00 | 0.37 | 0.37 | 36 | 1016.1 |
| 20260506133505 | 67 | 0 | 0.0 | 0.0 | 0.00 | 0.37 | 0.37 | 35 | 1016.1 |
| 20260506133005 | 68 | 0 | 0.0 | 0.0 | 0.00 | 0.37 | 0.37 | 36 | 1016.1 |
| 20260506132505 | 67 | 0 | 0.0 | 0.0 | 0.00 | 0.37 | 0.37 | 39 | 1016.1 |
| 20260506132005 | 68 | 0 | 0.0 | 0.0 | 0.00 | 0.37 | 0.37 | 38 | 1016.1 |
| 20260506131505 | 67 | 0 | 0.0 | 0.0 | 0.00 | 0.37 | 0.37 | 39 | 1016.1 |
| 20260506131005 | 67 | 0 | 0.0 | 0.0 | 0.00 | 0.37 | 0.37 | 45 | 1017.2 |
| 20260506130504 | 66 | 0 | 0.0 | 0.0 | 0.00 | 0.37 | 0.37 | 48 | 1017.2 |
| 20260506130005 | 65 | 0 | 0.0 | 0.0 | 0.00 | 0.37 | 0.37 | 53 | 1017.2 |
| 20260506125504 | 62 | 0 | 0.0 | 0.0 | 0.00 | 0.37 | 0.37 | 54 | 1017.2 |
| 20260506125004 | 60 | 0 | 0.0 | 0.0 | 0.00 | 0.37 | 0.37 | 53 | 1017.2 |
| 20260506124505 | 58 | 0 | 0.0 | 0.0 | 0.00 | 0.37 | 0.37 | 51 | 1017.2 |
| 20260506124005 | 58 | 0 | 0.0 | 0.0 | 0.00 | 0.37 | 0.37 | 49 | 1016.1 |
| 20260506123504 | 58 | 0 | 0.0 | 0.0 | 0.00 | 0.37 | 0.37 | 48 | 1016.1 |
| 20260506123004 | 58 | 0 | 0.0 | 0.0 | 0.00 | 0.37 | 0.37 | 47 | 1016.1 |
| 20260506122504 | 59 | 0 | 0.0 | 0.0 | 0.00 | 0.37 | 0.37 | 45 | 1016.1 |
| 20260506122005 | 60 | 0 | 0.0 | 0.0 | 0.00 | 0.37 | 0.37 | 46 | 1016.1 |
| 20260506121505 | 61 | 0 | 0.0 | 0.0 | 0.04 | 0.37 | 0.37 | 47 | 1016.1 |
| 20260506121005 | 62 | 0 | 0.0 | 0.0 | 0.04 | 0.37 | 0.37 | 46 | 1017.2 |
| 20260506120505 | 63 | 0 | 0.0 | 0.0 | 0.04 | 0.37 | 0.37 | 49 | 1017.2 |
| 20260506120005 | 63 | 0 | 0.0 | 0.0 | 0.04 | 0.37 | 0.37 | 51 | 1017.2 |
| 20260506115505 | 62 | 0 | 0.0 | 0.0 | 0.04 | 0.37 | 0.37 | 58 | 1017.2 |
| 20260506115004 | 60 | 0 | 0.0 | 0.0 | 0.04 | 0.37 | 0.37 | 58 | 1017.2 |
| 20260506114505 | 58 | 0 | 0.0 | 0.0 | 0.04 | 0.37 | 0.37 | 58 | 1017.2 |
| 20260506114005 | 58 | 0 | 0.0 | 0.0 | 0.04 | 0.37 | 0.37 | 58 | 1017.2 |
| 20260506113504 | 58 | 0 | 0.0 | 0.0 | 0.04 | 0.37 | 0.37 | 55 | 1017.2 |
| 20260506113004 | 59 | 0 | 0.0 | 0.0 | 0.04 | 0.41 | 0.37 | 56 | 1017.2 |
| 20260506112504 | 58 | 0 | 0.0 | 0.0 | 0.04 | 0.41 | 0.37 | 54 | 1017.2 |
| 20260506112004 | 59 | 0 | 0.0 | 0.0 | 0.04 | 0.41 | 0.37 | 54 | 1017.2 |
| 20260506111504 | 60 | 0 | 0.0 | 0.0 | 0.00 | 0.37 | 0.33 | 53 | 1017.2 |
| 20260506111005 | 61 | 0 | 0.0 | 0.0 | 0.00 | 0.37 | 0.33 | 55 | 1017.2 |
| 20260506110505 | 60 | 0 | 0.0 | 0.0 | 0.00 | 0.37 | 0.33 | 55 | 1017.2 |
| 20260506110004 | 60 | 0 | 0.0 | 0.0 | 0.00 | 0.42 | 0.33 | 51 | 1017.2 |
| 20260506105504 | 61 | 0 | 0.0 | 0.0 | 0.04 | 0.42 | 0.33 | 52 | 1018.3 |
| 20260506105004 | 62 | 0 | 0.0 | 0.0 | 0.04 | 0.42 | 0.33 | 53 | 1018.3 |
| 20260506104504 | 62 | 0 | 0.0 | 0.0 | 0.04 | 0.42 | 0.33 | 57 | 1018.3 |
| 20260506104004 | 62 | 0 | 0.0 | 0.0 | 0.04 | 0.42 | 0.33 | 62 | 1018.3 |
| 20260506103504 | 60 | 0 | 0.0 | 0.0 | 0.04 | 0.46 | 0.33 | 64 | 1018.3 |
| 20260506103004 | 58 | 0 | 0.0 | 0.0 | 0.04 | 0.46 | 0.33 | 61 | 1018.3 |
| 20260506102504 | 56 | 0 | 0.0 | 0.0 | 0.04 | 0.50 | 0.33 | 58 | 1018.3 |
| 20260506102004 | 56 | 0 | 0.0 | 0.0 | 0.04 | 0.50 | 0.33 | 56 | 1018.3 |
| 20260506101504 | 56 | 0 | 0.0 | 0.0 | 0.04 | 0.50 | 0.33 | 54 | 1018.3 |
| 20260506101004 | 56 | 0 | 0.0 | 0.0 | 0.04 | 0.50 | 0.33 | 52 | 1018.3 |
| 20260506100005 | 59 | 0 | 0.0 | 0.0 | 0.04 | 0.50 | 0.33 | 48 | 1018.3 |
| 20260506095505 | 61 | 0 | 0.0 | 0.0 | 0.00 | 0.46 | 0.29 | 49 | 1017.2 |
| 20260506095004 | 63 | 0 | 0.0 | 0.0 | 0.00 | 0.46 | 0.29 | 48 | 1017.2 |
| 20260506094504 | 64 | 0 | 0.0 | 0.0 | 0.00 | 0.46 | 0.29 | 49 | 1017.2 |
| 20260506094004 | 66 | 0 | 0.0 | 0.0 | 0.00 | 0.46 | 0.29 | 51 | 1017.2 |
| 20260506093504 | 67 | 0 | 0.0 | 0.0 | 0.00 | 0.46 | 0.29 | 52 | 1017.2 |
| 20260506093004 | 68 | 0 | 0.0 | 0.0 | 0.00 | 0.46 | 0.29 | 57 | 1017.2 |
| 20260506092504 | 67 | 0 | 0.0 | 0.0 | 0.00 | 0.46 | 0.29 | 65 | 1017.2 |
| 20260506092004 | 66 | 0 | 0.0 | 0.0 | 0.00 | 0.46 | 0.29 | 74 | 1017.2 |
| 20260506091504 | 65 | 0 | 0.0 | 0.0 | 0.04 | 0.46 | 0.29 | 98 | 1017.2 |
| 20260506091004 | 64 | 0 | 0.0 | 0.0 | 0.04 | 0.46 | 0.29 | 98 | 1017.2 |
| 20260506090504 | 61 | 0 | 0.0 | 0.0 | 0.04 | 0.46 | 0.29 | 98 | 1017.2 |
| 20260506090004 | 58 | 0 | 0.0 | 0.0 | 0.04 | 0.46 | 0.29 | 98 | 1017.2 |
| 20260506085504 | 57 | 0 | 0.0 | 0.0 | 0.04 | 0.46 | 0.29 | 98 | 1017.2 |
| 20260506085004 | 54 | 0 | 0.0 | 0.0 | 0.04 | 0.46 | 0.29 | 98 | 1017.2 |
| 20260506084504 | 54 | 0 | 0.0 | 0.0 | 0.04 | 0.46 | 0.29 | 98 | 1017.2 |
| 20260506084004 | 54 | 0 | 0.0 | 0.0 | 0.04 | 0.46 | 0.29 | 94 | 1017.2 |
| 20260506083504 | 54 | 0 | 0.0 | 0.0 | 0.04 | 0.46 | 0.29 | 95 | 1017.2 |
| 20260506083004 | 55 | 0 | 0.0 | 0.0 | 0.04 | 0.46 | 0.29 | 97 | 1017.2 |
| 20260506082504 | 55 | 0 | 0.0 | 0.0 | 0.04 | 0.46 | 0.29 | 93 | 1017.2 |
| 20260506082004 | 56 | 0 | 0.0 | 0.0 | 0.04 | 0.46 | 0.29 | 95 | 1017.2 |
| 20260506081504 | 56 | 0 | 0.0 | 0.0 | 0.00 | 0.42 | 0.25 | 98 | 1017.2 |
| 20260506081005 | 58 | 0 | 0.0 | 0.0 | 0.00 | 0.42 | 0.25 | 98 | 1016.1 |
| 20260506080504 | 58 | 0 | 0.0 | 0.0 | 0.00 | 0.42 | 0.25 | 98 | 1016.1 |
| 20260506073504 | 52 | 0 | 0.0 | 0.0 | 0.00 | 0.42 | 0.25 | 98 | 1017.2 |
| 20260506073004 | 52 | 0 | 0.0 | 0.0 | 0.00 | 0.42 | 0.25 | 98 | 1017.2 |
| 20260506072504 | 52 | 0 | 0.0 | 0.0 | 0.00 | 0.42 | 0.25 | 98 | 1016.1 |
| 20260506072004 | 52 | 0 | 0.0 | 0.0 | 0.00 | 0.42 | 0.25 | 98 | 1016.1 |
| 20260506071504 | 52 | 0 | 0.0 | 0.0 | 0.00 | 0.42 | 0.25 | 98 | 1016.1 |
| 20260506071004 | 51 | 0 | 0.0 | 0.0 | 0.00 | 0.42 | 0.25 | 98 | 1016.1 |
| 20260505184504 | 57 | 0 | 0.0 | 0.0 | 0.00 | 1.50 | 1.16 | 55 | 1017.2 |
| 20260505184004 | 57 | 0 | 0.0 | 0.0 | 0.00 | 1.50 | 1.16 | 55 | 1016.1 |
| 20260505183505 | 57 | 0 | 0.0 | 0.0 | 0.00 | 1.50 | 1.16 | 53 | 1016.1 |
| 20260505183005 | 58 | 0 | 0.0 | 0.0 | 0.00 | 1.53 | 1.16 | 54 | 1016.1 |
| 20260505182505 | 58 | 0 | 0.0 | 0.0 | 0.00 | 1.53 | 1.16 | 53 | 1016.1 |
| 20260505182005 | 58 | 0 | 0.0 | 0.0 | 0.00 | 1.53 | 1.16 | 52 | 1016.1 |
| 20260505181505 | 58 | 0 | 0.0 | 0.0 | 0.00 | 1.53 | 1.16 | 52 | 1016.1 |
| 20260505181005 | 58 | 0 | 0.0 | 0.0 | 0.00 | 1.53 | 1.16 | 51 | 1016.1 |
| 20260505180505 | 58 | 0 | 0.0 | 0.0 | 0.00 | 1.53 | 1.16 | 50 | 1016.1 |
| 20260505180005 | 58 | 0 | 0.0 | 0.0 | 0.00 | 1.53 | 1.16 | 50 | 1016.1 |
| 20260505175505 | 59 | 0 | 0.0 | 0.0 | 0.00 | 1.53 | 1.16 | 50 | 1015.1 |